This is the latest recevied weather packets stored in our database for station/object K3BAY-1. If no packets are shown the sender has not sent any weather packets the latest 10 day(s).
| Time | Temp. | Humidity | Pressure | Rain* | Wind** | Luminosity | Snow |
|---|---|---|---|---|---|---|---|
| 1777993397 | 25.56° C | 46% | 1011.1 hPa | 0 mm | - | 47 W/m² | - |
| 1777993091 | 26.67° C | 45% | 1010.8 hPa | 0 mm | - | 46 W/m² | - |
| 1777992790 | 26.67° C | 45% | 1010.8 hPa | 0 mm | - | 46 W/m² | - |
| 1777992487 | 25.56° C | 44% | 1011.1 hPa | 0 mm | - | 46 W/m² | - |
| 1777992186 | 25.56° C | 46% | 1010.8 hPa | 0 mm | - | 46 W/m² | - |
| 1777991882 | 25.56° C | 46% | 1010.8 hPa | 0 mm | - | 46 W/m² | - |
| 1777991580 | 26.11° C | 44% | 1010.8 hPa | 0 mm | - | 44 W/m² | - |
| 1777991276 | 25.56° C | 46% | 1010.8 hPa | 0 mm | - | 45 W/m² | - |
| 1777990974 | 25.56° C | 45% | 1010.8 hPa | 0 mm | - | 44 W/m² | - |
| 1777990671 | 24.44° C | 47% | 1010.4 hPa | 0 mm | - | 44 W/m² | - |
| 1777990369 | 24.44° C | 48% | 1010.4 hPa | 0 mm | - | 43 W/m² | - |
| 1777990064 | 24.44° C | 48% | 1010.4 hPa | 0 mm | - | 43 W/m² | - |
| 1777989761 | 23.89° C | 49% | 1010.1 hPa | 0 mm | - | 42 W/m² | - |
| 1777989458 | 23.89° C | 47% | 1010.1 hPa | 0 mm | - | 42 W/m² | - |
| 1777989154 | 23.33° C | 50% | 1010.1 hPa | 0 mm | - | 43 W/m² | - |
| 1777988850 | 23.33° C | 49% | 1010.1 hPa | 0 mm | - | 43 W/m² | - |
| 1777988548 | 23.33° C | 49% | 1010.1 hPa | 0 mm | - | 42 W/m² | - |
| 1777988245 | 23.33° C | 50% | 1010.1 hPa | 0 mm | - | 41 W/m² | - |
| 1777987941 | 23.33° C | 53% | 1009.7 hPa | 0 mm | - | 42 W/m² | - |
| 1777987636 | 22.78° C | 52% | 1010.1 hPa | 0 mm | - | 41 W/m² | - |
| 1777987334 | 22.78° C | 52% | 1009.7 hPa | 0 mm | - | 42 W/m² | - |
| 1777987032 | 22.22° C | 53% | 1009.7 hPa | 0 mm | - | 42 W/m² | - |
| 1777986729 | 22.22° C | 53% | 1009.7 hPa | 0 mm | - | 42 W/m² | - |
| 1777986426 | 21.67° C | 55% | 1009.4 hPa | 0 mm | - | 42 W/m² | - |
| 1777986125 | 21.67° C | 54% | 1009.4 hPa | 0 mm | - | 41 W/m² | - |
* Rain latest hour (hover to see other rain measurements)
** Current wind speed in m/s (hover to see current wind gust speed)